Вернуться в каталог

SL-12 R/B(2)

АктивенGEO
NORAD 14943·ROCKET BODY·🇷🇺 Russia

Запущен Apr 22, 1984 с Baikonur Cosmodrome

Loading…

TLE

СвежийSource: Space-Track

Эпоха: Sep 14, 2026, 12:50 UTC

1 14943U 84041D   26257.53514192 -.00000255  00000-0  00000-0 0  9993
2 14943   9.4336 314.5185 0014838 228.9536 163.5454  0.98629922122161

Отслеживайте SL-12 R/B(2) в реальном времени с AllMySat

Download on the App Store